Tracking 19709 objects as of 20-Jun-2019
HD Live streaming from Space Station
objects crossing your sky now

SL-8 DEB

Track SL-8 DEB now!
10-day predictions


NORAD ID: 39701
Int'l Code: 1991-009DQ
Perigee: 1,472.1 km
Apogee: 1,688.3 km
Inclination: 74.0 °
Period: 117.6 minutes
Semi major axis: 7951 km
RCS: 0.0255 m2 (small)
Launch date: February 12, 1991
Source: Commonwealth of Independent States (former USSR) (CIS)
Launch site: PLESETSK MISSILE AND SPACE COMPLEX (PKMTR)

Note: This is SATELLITE DEBRIS
aabbcc
Your satellite tracking list
Your tracking list is empty




NASA's NSSDC Master Catalog

Two Line Element Set (TLE):
1 39701U 91009DQ  19102.33548705  .00000020  00000-0  30713-3 0  9996
2 39701  73.9891 100.7397 0135935 351.1981  70.8138 12.24486339241400
Source of the keplerian elements: AFSPC